User: anonymous   Login
Location: Stoke Bliss
(52.2667°N, 2.5167°W)
Time: 02:47:55
(UTC+00:00)
Language:

Cosmos 1066 Rocket - Orbit

View from above orbital plane
View from above orbital plane
View from above satellite
View from above satellite

Ground track
Ground track

The orbit data is extracted from the following two-line orbital elements,

1 11166U 78121B   21127.55272070  .00000040  00000-0  13963-4 0  9995
2 11166  81.2413 230.6265 0066566 178.4654 181.6736 14.13775110184425
Epoch (UTC): 07 May 2021 13:15:55
Eccentricity: 0.0066566
inclination: 81.2413°
perigee height: 798 km
apogee height: 894 km
right ascension of ascending node: 230.6265°
argument of perigee: 178.4654°
revolutions per day: 14.13775110
mean anomaly at epoch: 181.6736°
orbit number at epoch: 18442

The dashed part of the orbit path shows where the satellite is in the earth's shadow,  

DLR